When you browse on this site, cookies collect data to enhance your experience and personalize the content and advertising you see.
Visit our Privacy Policy to learn more. By continuing to use the site, you agree to this use of cookies and data.
  • Em Portugal
  • Lista de países
  • Para 7 dias
  • Temperatura da água
  • Mapas de satélite
  • Mapa do tempo
  • Widgets de tempo
  • user-avatar
    Iniciar Sessão

    Previsão horária em Krosnice

    Hoje, 22 Março, Sexta-feira

    Tempo Temperatura Precipitação Vento Pressão Humidade
    00:00 +8°C° 0 mm 6 m/s 760 mmHg 87%
    01:00 +8°C° 0 mm 5 m/s 760 mmHg 87%
    02:00 +8°C° 0 mm 5 m/s 760 mmHg 88%
    03:00 +8°C° 0 mm 5 m/s 760 mmHg 88%
    04:00 +8°C° 0 mm 5 m/s 760 mmHg 88%
    05:00 +8°C° 0 mm 5 m/s 760 mmHg 88%
    06:00 +8°C° 0 mm 5 m/s 760 mmHg 87%
    07:00 +8°C° 0 mm 4 m/s 761 mmHg 86%
    08:00 +8°C° 0 mm 4 m/s 761 mmHg 82%
    09:00 +9°C° 0 mm 5 m/s 762 mmHg 77%
    10:00 +9°C° 0 mm 5 m/s 762 mmHg 73%
    11:00 +11°C° 0 mm 4 m/s 762 mmHg 68%
    12:00 +11°C° 0 mm 4 m/s 763 mmHg 62%
    13:00 +12°C° 0 mm 3 m/s 763 mmHg 57%
    14:00 +12°C° 0 mm 3 m/s 763 mmHg 53%
    15:00 +12°C° 0 mm 3 m/s 762 mmHg 49%
    16:00 +13°C° 0 mm 2 m/s 762 mmHg 45%
    17:00 +12°C° 0 mm 2 m/s 762 mmHg 48%
    18:00 +9°C° 0 mm 2 m/s 762 mmHg 51%
    19:00 +7°C° 0 mm 2 m/s 762 mmHg 54%
    20:00 +6°C° 0 mm 2 m/s 762 mmHg 54%
    21:00 +6°C° 0 mm 2 m/s 762 mmHg 55%
    22:00 +5°C° 0 mm 2 m/s 762 mmHg 55%
    23:00 +4°C° 0 mm 2 m/s 762 mmHg 56%

    Amanhã, 23 Março, Sábado

    Tempo Temperatura Precipitação Vento Pressão Humidade
    00:00 +4°C° 0 mm 2 m/s 762 mmHg 57%
    01:00 +4°C° 0 mm 2 m/s 762 mmHg 58%
    02:00 +3°C° 0 mm 2 m/s 761 mmHg 59%
    03:00 +3°C° 0 mm 2 m/s 761 mmHg 60%
    04:00 +3°C° 0 mm 2 m/s 761 mmHg 61%
    05:00 +3°C° 0 mm 2 m/s 761 mmHg 63%
    06:00 +3°C° 0 mm 3 m/s 760 mmHg 65%
    07:00 +3°C° 0 mm 3 m/s 760 mmHg 67%
    08:00 +5°C° 0 mm 3 m/s 760 mmHg 66%
    09:00 +8°C° 0 mm 3 m/s 760 mmHg 64%
    10:00 +10°C° 0 mm 4 m/s 760 mmHg 63%
    11:00 +11°C° 0 mm 4 m/s 759 mmHg 62%
    12:00 +13°C° 0 mm 4 m/s 758 mmHg 60%
    13:00 +14°C° 0 mm 4 m/s 758 mmHg 59%
    14:00 +14°C° 0 mm 4 m/s 757 mmHg 60%
    15:00 +14°C° 0 mm 4 m/s 757 mmHg 61%
    16:00 +15°C° 0 mm 4 m/s 756 mmHg 62%
    17:00 +13°C° 0 mm 4 m/s 756 mmHg 69%
    18:00 +12°C° 0 mm 3 m/s 756 mmHg 75%
    19:00 +11°C° 0 mm 3 m/s 756 mmHg 82%
    20:00 +10°C° 0.1 mm 3 m/s 756 mmHg 84%
    21:00 +10°C° 0.1 mm 4 m/s 756 mmHg 87%
    22:00 +8°C° 0.1 mm 4 m/s 756 mmHg 89%
    23:00 +7°C° 0 mm 4 m/s 757 mmHg 85%

    Depois de amanhã, 24 Março, Domingo

    Tempo Temperatura Precipitação Vento Pressão Humidade
    00:00 +6°C° 0 mm 4 m/s 757 mmHg 81%
    01:00 +5°C° 0 mm 4 m/s 757 mmHg 77%
    02:00 +4°C° 0 mm 4 m/s 757 mmHg 76%
    03:00 +3°C° 0 mm 4 m/s 757 mmHg 75%
    04:00 +2°C° 0 mm 3 m/s 757 mmHg 75%
    05:00 +1°C° 0 mm 4 m/s 757 mmHg 74%
    06:00 +1°C° 0 mm 4 m/s 758 mmHg 74%
    07:00 +1°C° 0 mm 4 m/s 758 mmHg 73%
    08:00 +4°C° 0 mm 4 m/s 758 mmHg 67%
    09:00 +5°C° 0 mm 4 m/s 758 mmHg 61%
    10:00 +7°C° 0 mm 3 m/s 758 mmHg 55%
    11:00 +7°C° 0 mm 4 m/s 758 mmHg 51%
    12:00 +7°C° 0 mm 4 m/s 757 mmHg 47%
    13:00 +8°C° 0 mm 4 m/s 757 mmHg 43%
    14:00 +8°C° 0 mm 4 m/s 757 mmHg 45%
    15:00 +7°C° 0 mm 4 m/s 756 mmHg 46%
    16:00 +7°C° 0 mm 4 m/s 756 mmHg 47%
    17:00 +6°C° 0 mm 4 m/s 756 mmHg 52%
    18:00 +5°C° 0 mm 3 m/s 756 mmHg 57%
    19:00 +4°C° 0 mm 3 m/s 756 mmHg 62%
    20:00 +3°C° 0 mm 3 m/s 755 mmHg 65%
    21:00 +3°C° 0 mm 3 m/s 755 mmHg 67%
    22:00 +2°C° 0 mm 3 m/s 755 mmHg 70%
    23:00 +2°C° 0 mm 3 m/s 755 mmHg 72%

    25 Março, Segunda-feira

    Tempo Temperatura Precipitação Vento Pressão Humidade
    00:00 +1°C° 0 mm 3 m/s 754 mmHg 73%
    01:00 +1°C° 0 mm 3 m/s 754 mmHg 75%
    02:00 0°C° 0 mm 4 m/s 753 mmHg 76%
    03:00 -1°C° 0 mm 4 m/s 753 mmHg 77%
    04:00 -1°C° 0 mm 4 m/s 752 mmHg 78%
    05:00 0°C° 0 mm 5 m/s 751 mmHg 78%
    06:00 0°C° 0 mm 5 m/s 751 mmHg 78%
    07:00 -1°C° 0 mm 6 m/s 750 mmHg 78%
    08:00 0°C° 0.3 mm 7 m/s 750 mmHg 78%
    09:00 0°C° 0.3 mm 7 m/s 749 mmHg 78%
    10:00 +1°C° 0.3 mm 8 m/s 748 mmHg 78%
    11:00 +1°C° 0.3 mm 8 m/s 748 mmHg 75%
    12:00 +2°C° 0.3 mm 8 m/s 747 mmHg 72%
    13:00 +4°C° 0.3 mm 8 m/s 747 mmHg 69%
    14:00 +4°C° 0.3 mm 7 m/s 747 mmHg 67%
    15:00 +3°C° 0.3 mm 7 m/s 747 mmHg 66%
    16:00 +3°C° 0.3 mm 6 m/s 746 mmHg 65%
    17:00 +2°C° 0.2 mm 5 m/s 747 mmHg 70%
    18:00 +1°C° 0.2 mm 4 m/s 747 mmHg 75%
    19:00 +2°C° 0.2 mm 3 m/s 747 mmHg 81%
    20:00 0°C° 0.3 mm 4 m/s 748 mmHg 83%
    21:00 0°C° 0.3 mm 5 m/s 749 mmHg 85%
    22:00 -2°C° 0.3 mm 6 m/s 750 mmHg 87%
    23:00 -1°C° 0 mm 5 m/s 751 mmHg 89%

    26 Março, Terça-feira

    Tempo Temperatura Precipitação Vento Pressão Humidade
    00:00 -1°C° 0 mm 5 m/s 752 mmHg 91%
    01:00 -1°C° 0 mm 4 m/s 753 mmHg 93%
    02:00 -2°C° 0 mm 6 m/s 754 mmHg 90%
    03:00 -2°C° 0 mm 7 m/s 755 mmHg 87%
    04:00 -2°C° 0 mm 8 m/s 756 mmHg 84%
    05:00 -2°C° 0 mm 7 m/s 757 mmHg 81%
    06:00 -2°C° 0 mm 7 m/s 758 mmHg 79%
    07:00 -3°C° 0 mm 6 m/s 759 mmHg 77%
    08:00 -1°C° 0 mm 6 m/s 760 mmHg 71%
    09:00 +1°C° 0 mm 6 m/s 760 mmHg 64%
    10:00 +2°C° 0 mm 5 m/s 761 mmHg 58%
    11:00 +3°C° 0 mm 5 m/s 761 mmHg 57%
    12:00 +5°C° 0 mm 5 m/s 761 mmHg 56%
    13:00 +6°C° 0 mm 5 m/s 761 mmHg 55%
    14:00 +6°C° 0 mm 5 m/s 761 mmHg 53%
    15:00 +6°C° 0 mm 5 m/s 761 mmHg 51%
    16:00 +6°C° 0 mm 5 m/s 760 mmHg 48%
    17:00 +5°C° 0 mm 4 m/s 760 mmHg 52%
    18:00 +4°C° 0 mm 4 m/s 760 mmHg 56%
    19:00 +3°C° 0 mm 4 m/s 760 mmHg 60%
    20:00 +3°C° 0 mm 4 m/s 760 mmHg 60%
    21:00 +3°C° 0 mm 4 m/s 759 mmHg 60%
    22:00 +1°C° 0 mm 4 m/s 759 mmHg 61%
    23:00 +1°C° 0 mm 5 m/s 759 mmHg 61%

    27 Março, Quarta-feira

    Tempo Temperatura Precipitação Vento Pressão Humidade
    00:00 +1°C° 0 mm 5 m/s 758 mmHg 62%
    01:00 +1°C° 0 mm 5 m/s 758 mmHg 62%
    02:00 +1°C° 0.2 mm 5 m/s 758 mmHg 65%
    03:00 +1°C° 0.2 mm 5 m/s 757 mmHg 68%
    04:00 +1°C° 0.2 mm 6 m/s 757 mmHg 70%
    05:00 +2°C° 0.2 mm 6 m/s 757 mmHg 72%
    06:00 +2°C° 0.2 mm 6 m/s 757 mmHg 74%
    07:00 +2°C° 0.2 mm 6 m/s 757 mmHg 76%
    08:00 +2°C° 0 mm 6 m/s 757 mmHg 77%
    09:00 +3°C° 0 mm 6 m/s 757 mmHg 78%
    10:00 +4°C° 0 mm 6 m/s 757 mmHg 79%
    11:00 +4°C° 0 mm 6 m/s 757 mmHg 79%
    12:00 +6°C° 0 mm 5 m/s 757 mmHg 80%
    13:00 +6°C° 0 mm 5 m/s 757 mmHg 80%
    14:00 +6°C° 0 mm 5 m/s 757 mmHg 81%
    15:00 +6°C° 0 mm 5 m/s 757 mmHg 81%
    16:00 +7°C° 0 mm 5 m/s 757 mmHg 82%
    17:00 +6°C° 0 mm 4 m/s 758 mmHg 86%
    18:00 +5°C° 0 mm 4 m/s 758 mmHg 89%
    19:00 +5°C° 0 mm 3 m/s 759 mmHg 93%
    20:00 +4°C° 0 mm 3 m/s 759 mmHg 94%
    21:00 +3°C° 0 mm 3 m/s 760 mmHg 95%
    22:00 +3°C° 0 mm 3 m/s 760 mmHg 95%
    23:00 +2°C° 0 mm 3 m/s 761 mmHg 95%
    Mostrar mais